Sioux Falls, SD

12:47 AM CDT on July 22, 2017 (GMT -0500)
Foss

Weather History for KFSD - July, 2013

Change the Weather History Date:

Monday, July 8, 2013

  Actual Average Record
Temperature  
Mean Temperature 76 °F 73 °F  
Max Temperature 87 °F 84 °F 102 °F (1989)
Min Temperature 64 °F 62 °F 44 °F (1899)
Degree Days  
Heating Degree Days 0 0  
Month to date heating degree days 0 0  
Since 1 June heating degree days 69 51  
Since 1 July heating degree days 0 0  
Cooling Degree Days 11 8  
Month to date cooling degree days 70 63  
Year to date cooling degree days 248 234  
Since 1 June cooling degree days 206 198  
Growing Degree Days 26 (Base 50)    
Moisture  
Dew Point 68 °F    
Average Humidity 79    
Maximum Humidity 100    
Minimum Humidity 57    
Precipitation  
Precipitation 0.00 in 0.10 in 1.84 in (1969)
Month to date precipitation 0.13 0.83  
Year to date precipitation 16.72 14.08  
Snow  
Snow 0.00 in 0.00 in 0.00 in ()
Month to date snowfall 0.0 0.0  
Since 1 June snowfall 0.0 0.0  
Since 1 July snowfall 0.0 0.0  
Snow Depth 0.00 in    
Sea Level Pressure  
Sea Level Pressure 29.94 in    
Wind  
Wind Speed 6 mph (East)    
Max Wind Speed 13 mph    
Max Gust Speed 24 mph    
Visibility 10 miles    
Events Thunderstorm    
T = Trace of Precipitation, MM = Missing Value Source: NWS Daily Summary

Daily Weather History Graph

Daily Weather History Graph

Search for Another Location

Airport or City:

Trip Planner

Search our weather history database for the weather conditions in past years. The results will help you decide how hot, cold, wet, or windy it might be!

Date:

Astronomy

Jul. 08, 2013 Rise Set
Actual Time 5:54 AM CDT 9:09 PM CDT
Civil Twilight 5:18 AM CDT 9:44 PM CDT
Nautical Twilight 4:33 AM CDT 10:30 PM CDT
Astronomical Twilight 3:37 AM CDT 11:25 PM CDT
Moon 6:27 AM CDT (7/8) 9:09 PM CDT (7/8)
Length of Visible Light 16h 25m
Length of Day
15h 15m
New Moon, 0% of the Moon is Illuminated
Jul 8
New Moon
Jul 15
First Quarter
Jul 22
Full
Jul 29
Last Quarter
Aug 6
New

Hourly Weather History & Observations

Time (CDT) Temp. Heat Index Dew Point Humidity Pressure Visibility Wind Dir Wind Speed Gust Speed Precip Events Conditions
12:56 AM 70.0 °F - 68.0 °F 93% 29.94 in 9.0 mi North 3.5 mph - N/A   Clear
1:56 AM 69.1 °F - 66.0 °F 90% 29.94 in 10.0 mi Calm Calm - N/A   Clear
2:56 AM 66.9 °F - 64.9 °F 93% 29.94 in 10.0 mi ENE 3.5 mph - N/A   Clear
3:56 AM 64.9 °F - 64.0 °F 97% 29.93 in 10.0 mi North 3.5 mph - N/A   Clear
4:37 AM 66.2 °F - 62.6 °F 88% 29.95 in 10.0 mi NNE 3.5 mph - N/A Thunderstorm Clear
4:46 AM 66.2 °F - 62.6 °F 88% 29.95 in 10.0 mi NNE 3.5 mph - N/A   Partly Cloudy
4:56 AM 64.0 °F - 62.1 °F 93% 29.93 in 10.0 mi Calm Calm - N/A   Partly Cloudy
5:56 AM 64.0 °F - 61.0 °F 90% 29.93 in 10.0 mi NNE 3.5 mph - N/A   Partly Cloudy
6:56 AM 66.0 °F - 62.1 °F 87% 29.95 in 10.0 mi Calm Calm - N/A   Partly Cloudy
7:56 AM 70.0 °F - 63.0 °F 78% 29.97 in 10.0 mi Calm Calm - N/A   Partly Cloudy
8:56 AM 73.9 °F - 66.9 °F 79% 29.98 in 10.0 mi ENE 5.8 mph - N/A   Scattered Clouds
9:56 AM 77.0 °F - 70.0 °F 79% 29.99 in 10.0 mi ESE 6.9 mph - N/A   Partly Cloudy
10:56 AM 80.1 °F 83.8 °F 72.0 °F 76% 29.98 in 10.0 mi ESE 9.2 mph - N/A   Scattered Clouds
11:56 AM 82.0 °F 86.7 °F 72.0 °F 71% 29.98 in 10.0 mi ENE 6.9 mph - N/A   Mostly Cloudy
12:56 PM 82.9 °F 88.0 °F 72.0 °F 69% 29.97 in 10.0 mi Variable 4.6 mph - N/A   Mostly Cloudy
1:56 PM 84.9 °F 90.7 °F 72.0 °F 65% 29.96 in 10.0 mi ENE 6.9 mph - N/A   Scattered Clouds
2:56 PM 86.0 °F 91.5 °F 71.1 °F 61% 29.95 in 10.0 mi ENE 8.1 mph - N/A   Scattered Clouds
3:56 PM 86.0 °F 91.5 °F 71.1 °F 61% 29.94 in 10.0 mi East 9.2 mph - N/A   Scattered Clouds
4:56 PM 84.9 °F 89.4 °F 70.0 °F 61% 29.94 in 10.0 mi ESE 11.5 mph - N/A   Mostly Cloudy
5:56 PM 86.0 °F 90.1 °F 69.1 °F 57% 29.92 in 10.0 mi SSE 10.4 mph - N/A   Mostly Cloudy
6:56 PM 86.0 °F 90.1 °F 69.1 °F 57% 29.91 in 10.0 mi SSE 10.4 mph - N/A   Scattered Clouds
7:56 PM 84.9 °F 88.2 °F 68.0 °F 57% 29.90 in 10.0 mi SE 8.1 mph - N/A   Mostly Cloudy
8:56 PM 82.0 °F 86.3 °F 71.1 °F 69% 29.90 in 10.0 mi East 6.9 mph - N/A   Mostly Cloudy
9:56 PM 82.0 °F 86.3 °F 71.1 °F 69% 29.91 in 10.0 mi SE 4.6 mph - N/A   Mostly Cloudy
10:56 PM 81.0 °F 84.4 °F 70.0 °F 69% 29.88 in 10.0 mi SSE 8.1 mph - N/A   Mostly Cloudy
11:56 PM 78.1 °F - 69.1 °F 74% 29.87 in 10.0 mi South 6.9 mph - N/A   Scattered Clouds